Location: Byszew
(52.1813°N, 19.2693°E)
Time: 01:11:27
(UTC+00:00)

Cosmos 2074 Rocket - Pass Details

Date: 03 March 2021
Orbit: 966 x 987 km, 82.9° (Epoch: 11 April)

Event Time Altitude Azimuth Distance (km) Brightness Sun altitude
Rises 17:35:11 0° 195° (SSW) 3,677 7.2 -11.3°
Reaches altitude 10° 17:37:42 10° 198° (SSW) 2,731 6.5 -11.7°
Maximum altitude 17:43:57 71° 282° (WNW) 1,034 4.3 -12.7°
Drops below altitude 10° 17:50:13 10° 7° (N) 2,735 6.4 -13.6°
Sets 17:52:45 0° 10° (N) 3,683 7.0 -14.0°
